New River MCAS, NC

11:23 PM EST on February 23, 2018 (GMT -0500)
New River Marine Corps Air Station

Weather History for KNCA - March, 2012

Change the Weather History Date:

Tuesday, March 6, 2012

  Actual Average Record
Temperature  
Mean Temperature 42 °F -  
Max Temperature 53 °F 60 °F 79 °F (2004)
Min Temperature 30 °F 39 °F 27 °F (2002)
Degree Days  
Heating Degree Days 24    
Moisture  
Dew Point 27 °F    
Average Humidity 60    
Maximum Humidity 86    
Minimum Humidity 32    
Precipitation  
Precipitation 0.00 in - - ()
Sea Level Pressure  
Sea Level Pressure 30.65 in    
Wind  
Wind Speed 4 mph (NE)    
Max Wind Speed 9 mph    
Max Gust Speed -    
Visibility 10 miles    
Events      
Averages and records for this station are not official NWS values.
T = Trace of Precipitation, MM = Missing Value Source: NWS Daily Summary

Daily Weather History Graph

Daily Weather History Graph

Search for Another Location

Airport or City:

Trip Planner

Search our weather history database for the weather conditions in past years. The results will help you decide how hot, cold, wet, or windy it might be!

Date:

Astronomy

Mar. 06, 2012 Rise Set
Actual Time 6:31 AM EST 6:10 PM EST
Civil Twilight 6:06 AM EST 6:35 PM EST
Nautical Twilight 5:37 AM EST 7:04 PM EST
Astronomical Twilight 5:08 AM EST 7:34 PM EST
Moon 4:36 PM EST (3/6) 5:02 AM EST (3/6)
Length of Visible Light 12h 28m
Length of Day
11h 38m
Waxing Gibbous, 96% of the Moon is Illuminated
Mar 6
Waxing Gibbous
Mar 8
Full
Mar 14
Last Quarter
Mar 22
New
Mar 30
First Quarter

Hourly Weather History & Observations

Time (EST) Temp. Windchill Dew Point Humidity Pressure Visibility Wind Dir Wind Speed Gust Speed Precip Events Conditions
12:56 AM 34.0 °F 31.0 °F 25.0 °F 70% 30.53 in 10.0 mi West 3.5 mph - N/A   Clear
1:56 AM 34.0 °F 29.8 °F 23.0 °F 64% 30.55 in 10.0 mi NW 4.6 mph - N/A   Clear
2:56 AM 30.0 °F - 25.0 °F 82% 30.55 in 10.0 mi Calm Calm - N/A   Clear
3:56 AM 32.0 °F 28.7 °F 21.9 °F 66% 30.56 in 10.0 mi NNW 3.5 mph - N/A   Clear
4:56 AM 30.0 °F - 23.0 °F 75% 30.60 in 10.0 mi Calm Calm - N/A   Clear
5:56 AM 32.0 °F 27.5 °F 23.0 °F 69% 30.61 in 10.0 mi North 4.6 mph - N/A   Clear
6:56 AM 33.1 °F 28.7 °F 23.0 °F 66% 30.65 in 10.0 mi North 4.6 mph - N/A   Clear
7:56 AM 37.0 °F 32.4 °F 26.1 °F 65% 30.67 in 10.0 mi NNE 5.8 mph - N/A   Clear
8:56 AM 41.0 °F 35.2 °F 25.0 °F 53% 30.70 in 10.0 mi NE 9.2 mph - N/A   Clear
9:56 AM 44.1 °F 39.0 °F 24.1 °F 45% 30.71 in 10.0 mi NE 9.2 mph - N/A   Clear
10:56 AM 46.0 °F 43.1 °F 23.0 °F 40% 30.71 in 10.0 mi NE 5.8 mph - N/A   Clear
11:56 AM 48.0 °F - 24.1 °F 39% 30.70 in 10.0 mi East 8.1 mph - N/A   Clear
12:56 PM 50.0 °F - 23.0 °F 35% 30.68 in 10.0 mi NE 3.5 mph - N/A   Clear
1:56 PM 52.0 °F - 23.0 °F 32% 30.66 in 10.0 mi Variable 3.5 mph - N/A   Clear
2:56 PM 53.1 °F - 25.0 °F 34% 30.65 in 10.0 mi ENE 3.5 mph - N/A   Clear
3:56 PM 53.1 °F - 28.0 °F 38% 30.64 in 10.0 mi SE 6.9 mph - N/A   Clear
4:56 PM 51.1 °F - 30.0 °F 44% 30.65 in 10.0 mi SSE 9.2 mph - N/A   Clear
5:56 PM 46.9 °F - 32.0 °F 56% 30.65 in 10.0 mi SSE 9.2 mph - N/A   Clear
6:56 PM 44.1 °F 40.8 °F 33.1 °F 65% 30.66 in 10.0 mi SSE 5.8 mph - N/A   Clear
7:56 PM 42.1 °F 39.2 °F 34.0 °F 73% 30.66 in 10.0 mi South 4.6 mph - N/A   Clear
8:56 PM 41.0 °F - 35.1 °F 79% 30.67 in 10.0 mi Calm Calm - N/A   Clear
9:56 PM 39.0 °F - 35.1 °F 86% 30.69 in 10.0 mi Calm Calm - N/A   Clear
10:56 PM 39.9 °F 35.8 °F 34.0 °F 79% 30.69 in 10.0 mi North 5.8 mph - N/A   Clear
11:56 PM 39.9 °F 37.8 °F 33.1 °F 77% 30.69 in 10.0 mi North 3.5 mph - N/A   Clear